EA6AMI-5 Weather Reports


Display with metric or nautical units.
time (UTC)temp
F
wind
direction
speed
MPH
gust
MPH
rain 1hr
in
rain 24hr
in
rain mn
in
humidity
%
barometer
mb
20260505183603 64 221 5.0 9.0 0.00 0.00 0.00 84 1010.5
20260505182703 64 204 5.0 9.0 0.00 0.00 0.00 83 1010.5
20260505181803 64 209 4.0 8.0 0.00 0.00 0.00 81 1010.7
20260505180903 65 199 4.0 9.0 0.00 0.00 0.00 80 1010.4
20260505180004 65 207 5.0 9.0 0.00 0.00 0.00 79 1010.6
20260505175404 66 208 5.0 11.0 0.00 0.00 0.00 78 1010.6
20260505174503 66 200 4.0 9.0 0.00 0.00 0.00 77 1010.4
20260505173603 67 190 5.0 8.0 0.00 0.00 0.00 75 1010.3
20260505172703 67 197 6.0 11.0 0.00 0.00 0.00 75 1010.1
20260505171803 67 196 6.0 11.0 0.00 0.00 0.00 74 1010.4
20260505170904 67 195 6.0 11.0 0.00 0.00 0.00 73 1010.5
20260505170004 67 209 5.0 10.0 0.00 0.00 0.00 73 1010.3
20260505165404 67 213 5.0 9.0 0.00 0.00 0.00 73 1010.6
20260505164504 66 209 5.0 9.0 0.00 0.00 0.00 74 1010.5
20260505163603 67 206 6.0 11.0 0.00 0.00 0.00 74 1010.6
20260505162703 66 196 6.0 11.0 0.00 0.00 0.00 73 1010.5
20260505161803 67 195 6.0 12.0 0.00 0.00 0.00 72 1010.6
20260505160903 66 210 5.0 11.0 0.00 0.00 0.00 73 1010.7
20260505152703 66 205 6.0 12.0 0.00 0.00 0.00 74 1010.9
20260505151803 66 204 6.0 14.0 0.00 0.00 0.00 74 1011.0
20260505150903 66 190 7.0 13.0 0.00 0.00 0.00 75 1010.8
20260505124504 69 187 7.0 17.0 0.00 0.00 0.00 61 1011.4
20260505123603 70 196 7.0 15.0 0.00 0.00 0.00 60 1011.6
20260505122703 70 206 6.0 11.0 0.00 0.00 0.00 59 1011.6
20260505121803 70 190 7.0 14.0 0.00 0.00 0.00 60 1011.7
20260505120904 70 196 6.0 12.0 0.00 0.00 0.00 59 1011.7
20260505120004 70 193 5.0 12.0 0.00 0.00 0.00 58 1011.6
20260505115404 70 194 5.0 13.0 0.00 0.00 0.00 60 1011.7
20260505114503 69 185 6.0 17.0 0.00 0.00 0.00 58 1011.8
20260505113604 69 179 6.0 13.0 0.00 0.00 0.00 60 1012.0
20260505112703 69 184 7.0 14.0 0.00 0.00 0.00 59 1012.1
20260505111803 69 179 6.0 12.0 0.00 0.00 0.00 61 1012.3
20260505110904 68 193 6.0 14.0 0.00 0.00 0.00 64 1012.3
20260505101803 67 186 5.0 11.0 0.00 0.00 0.00 65 1012.1
20260505100903 68 185 7.0 13.0 0.00 0.00 0.00 64 1012.2
20260505100004 67 192 6.0 11.0 0.00 0.00 0.00 65 1012.3
20260505095403 67 196 6.0 12.0 0.00 0.00 0.00 65 1012.4
20260505094503 66 206 5.0 9.0 0.00 0.00 0.00 68 1012.3
20260505093603 68 209 5.0 12.0 0.00 0.00 0.00 65 1012.2
20260505092703 67 201 5.0 11.0 0.00 0.00 0.00 64 1012.3
20260505091803 66 199 5.0 10.0 0.00 0.00 0.00 68 1012.4
20260505090903 66 209 5.0 10.0 0.00 0.00 0.00 68 1012.2
20260505090003 68 190 5.0 10.0 0.00 0.00 0.00 66 1012.2
20260505085403 67 184 6.0 11.0 0.00 0.00 0.00 67 1012.0
20260505084504 66 179 7.0 12.0 0.00 0.00 0.00 70 1012.1
20260505083603 66 192 6.0 13.0 0.00 0.00 0.00 69 1012.0
20260505082703 65 203 5.0 9.0 0.00 0.00 0.00 74 1012.2
20260505081803 66 180 5.0 10.0 0.00 0.00 0.00 73 1012.3
20260505080903 65 180 5.0 11.0 0.00 0.00 0.00 73 1012.4
20260505080004 65 198 5.0 9.0 0.00 0.00 0.00 75 1012.3
20260505075403 64 181 5.0 9.0 0.00 0.00 0.00 76 1012.3
20260505074503 64 166 5.0 9.0 0.00 0.00 0.00 77 1012.2
20260505073603 64 171 2.0 6.0 0.00 0.00 0.00 78 1012.3
20260505072703 63 187 4.0 8.0 0.00 0.00 0.00 79 1012.3
20260505071803 64 190 4.0 8.0 0.00 0.00 0.00 78 1012.4
20260505070903 64 174 5.0 9.0 0.00 0.00 0.00 79 1012.4
20260505070004 64 167 5.0 11.0 0.00 0.00 0.00 78 1012.3
20260505065403 63 166 5.0 11.0 0.00 0.00 0.00 79 1012.1
20260505064503 63 179 4.0 9.0 0.00 0.00 0.00 79 1012.4
20260505063603 64 162 5.0 9.0 0.00 0.00 0.00 78 1012.5
20260505062704 64 160 3.0 6.0 0.00 0.00 0.00 79 1012.2
20260505061803 63 176 3.0 8.0 0.00 0.00 0.00 80 1012.2
20260505060903 63 132 3.0 5.0 0.00 0.00 0.00 81 1012.0
20260505060003 62 154 3.0 6.0 0.00 0.00 0.00 83 1012.3
20260505055403 62 166 3.0 6.0 0.00 0.00 0.00 83 1012.3
20260505054503 62 154 3.0 6.0 0.00 0.00 0.00 83 1012.4
20260505053603 61 153 2.0 5.0 0.00 0.00 0.00 83 1012.2
20260505052703 61 198 3.0 7.0 0.00 0.00 0.00 83 1012.1
20260505051803 60 205 2.0 5.0 0.00 0.00 0.00 83 1012.2
20260505050903 60 178 2.0 7.0 0.00 0.00 0.00 83 1012.1
20260505040903 61 190 2.0 5.0 0.00 0.00 0.00 84 1012.3
20260505040004 61 211 3.0 5.0 0.00 0.00 0.00 84 1012.3
20260505035403 61 211 2.0 6.0 0.00 0.00 0.00 84 1012.3
20260505034503 60 208 2.0 6.0 0.00 0.00 0.00 84 1012.4
20260505033603 60 227 2.0 7.0 0.00 0.00 0.00 84 1012.4
20260505032703 60 204 3.0 5.0 0.00 0.00 0.00 84 1012.6
20260505031803 60 299 2.0 6.0 0.00 0.00 0.00 84 1012.4
20260505030903 60 236 2.0 7.0 0.00 0.00 0.00 83 1012.5
20260505030003 61 210 3.0 10.0 0.00 0.00 0.00 84 1012.6
20260505025403 60 212 4.0 10.0 0.00 0.00 0.00 85 1012.7
20260505024504 61 214 3.0 6.0 0.00 0.00 0.00 85 1012.7
20260505023603 61 217 3.0 9.0 0.00 0.00 0.00 85 1012.6
20260505022704 61 246 4.0 9.0 0.00 0.00 0.00 85 1012.5
20260505021803 61 222 3.0 8.0 0.00 0.00 0.00 84 1012.8
20260505020903 62 212 4.0 10.0 0.00 0.00 0.00 84 1012.8
20260505020004 62 219 4.0 9.0 0.00 0.00 0.00 85 1013.0
20260505015403 62 213 5.0 13.0 0.00 0.00 0.00 85 1013.1
20260505014503 62 226 6.0 13.0 0.00 0.00 0.00 86 1013.1
20260505013603 62 229 6.0 15.0 0.00 0.00 0.00 86 1013.1
20260505012703 62 218 5.0 11.0 0.00 0.00 0.00 85 1013.0
20260505011803 62 215 4.0 10.0 0.00 0.01 0.00 85 1013.1
20260505010903 62 219 4.0 9.0 0.00 0.01 0.00 84 1013.2
20260505010003 62 230 5.0 11.0 0.00 0.01 0.00 84 1013.3
20260505005403 63 220 4.0 11.0 0.00 0.01 0.00 84 1013.4
20260505004503 63 190 3.0 6.0 0.00 0.01 0.00 84 1013.4
20260505003603 63 206 3.0 6.0 0.00 0.01 0.00 84 1013.3
20260505002703 63 222 4.0 8.0 0.00 0.01 0.00 84 1013.6
20260505001803 62 217 4.0 9.0 0.00 0.01 0.00 84 1013.7
20260505000904 62 226 4.0 10.0 0.00 0.01 0.00 85 1013.5
20260505000003 62 218 3.0 6.0 0.00 0.01 0.00 85 1013.6
20260504235403 62 230 3.0 6.0 0.00 0.01 0.00 85 1013.7
20260504234504 62 218 2.0 5.0 0.00 0.01 0.00 86 1013.6
20260504233603 62 247 2.0 6.0 0.00 0.01 0.00 85 1013.6
20260504232703 62 223 2.0 10.0 0.00 0.01 0.00 86 1013.8
20260504231803 62 216 3.0 8.0 0.00 0.01 0.00 86 1013.9
20260504230903 62 228 3.0 9.0 0.00 0.01 0.00 87 1013.9
20260504230003 62 238 4.0 9.0 0.00 0.01 0.00 87 1013.8
20260504225403 62 218 3.0 6.0 0.00 0.01 0.00 87 1013.6
20260504224503 62 225 3.0 6.0 0.00 0.01 0.00 87 1013.7
20260504223603 62 233 2.0 8.0 0.00 0.01 0.00 87 1013.7
20260504222703 62 232 4.0 9.0 0.00 0.01 0.00 88 1013.9
20260504221803 62 219 3.0 9.0 0.00 0.01 0.00 88 1013.7
20260504220903 62 227 3.0 6.0 0.00 0.01 0.00 89 1013.9
20260504220004 62 227 5.0 10.0 0.00 0.01 0.00 89 1013.7
20260504215403 62 219 6.0 12.0 0.00 0.01 0.01 90 1013.9
20260504214503 61 214 5.0 10.0 0.00 0.01 0.01 90 1013.7
20260504213603 61 206 4.0 10.0 0.00 0.01 0.01 91 1013.9
20260504212704 61 196 4.0 6.0 0.00 0.01 0.01 91 1013.8
20260504211803 61 188 3.0 7.0 0.00 0.01 0.01 91 1013.9
20260504210903 62 196 3.0 6.0 0.00 0.01 0.01 91 1013.8
20260504210003 62 182 3.0 7.0 0.00 0.01 0.01 91 1013.8
20260504205403 62 182 4.0 7.0 0.00 0.01 0.01 91 1013.9
20260504204504 62 188 3.0 6.0 0.00 0.01 0.01 90 1013.7
20260504203603 62 185 4.0 8.0 0.00 0.01 0.01 90 1013.7
20260504201803 62 186 5.0 9.0 0.00 0.01 0.01 90 1013.5
20260504200903 62 201 5.0 10.0 0.00 0.01 0.01 90 1013.5
20260504200003 62 204 5.0 9.0 0.00 0.01 0.01 90 1013.3
20260504195403 62 203 5.0 9.0 0.00 0.01 0.01 90 1013.4
20260504194504 63 202 4.0 9.0 0.00 0.01 0.01 90 1013.3
20260504193603 63 189 4.0 8.0 0.00 0.01 0.01 90 1013.0
20260504192703 63 194 4.0 8.0 0.00 0.01 0.01 89 1013.1
20260504191803 63 195 4.0 8.0 0.00 0.01 0.01 89 1012.9
20260504190903 63 197 5.0 9.0 0.00 0.01 0.01 89 1012.8
20260504190004 63 195 4.0 10.0 0.00 0.01 0.01 89 1012.7
20260504185403 63 192 5.0 11.0 0.00 0.01 0.01 89 1012.6
20260504184504 63 185 4.0 9.0 0.00 0.01 0.01 89 1012.5